Location: Unspecified
(36.5156°S, 0.0000°E)
Time: 14:27:15
(UTC+00:00)

Transit 2A Rocket - All Passes

Search period start: 04 April 2026 00:00
Search period end: 14 April 2026 00:00
Orbit: 584 x 899 km, 66.7° (Epoch: 28 March)

Date Brightness Start Highest point End Pass type
(mag) Time Alt. Az. Time Alt. Az. Time Alt. Az.
4 Apr - 01:14:14 10° S 01:18:58 30° SE 01:23:59 10° ENE night (unlit)
4 Apr - 02:56:16 10° SW 03:01:23 39° WNW 03:06:47 10° N night (unlit)
4 Apr - 15:45:43 10° NNE 15:49:15 25° ENE 15:52:56 10° SE daylight
4 Apr - 17:27:47 10° WNW 17:31:27 26° SW 17:35:19 10° S daylight
5 Apr - 00:29:24 10° S 00:32:59 18° SE 00:36:43 10° E night (unlit)
5 Apr - 02:10:18 10° SSW 02:15:48 73° WNW 02:21:40 10° NNE night (unlit)
5 Apr - 15:02:23 10° NE 15:03:55 12° ENE 15:05:29 10° E daylight
5 Apr - 16:41:24 10° NW 16:45:36 53° WSW 16:50:04 10° SSE daylight
6 Apr - 01:24:40 10° SSW 01:30:07 62° ESE 01:35:56 10° NE night (unlit)
6 Apr - 03:08:27 10° WSW 03:12:04 18° WNW 03:15:48 10° NW night (unlit)
6 Apr - 15:55:40 10° NNW 15:59:55 71° ENE 16:04:27 10° SSE daylight
6 Apr - 17:41:04 10° WSW 17:42:52 12° SW 17:44:42 10° SSW daylight
7 Apr - 00:39:19 10° S 00:44:19 35° SE 00:49:36 10° ENE night (unlit)
7 Apr - 02:21:41 10° SW 02:26:38 33° WNW 02:31:49 10° N night (unlit)
7 Apr - 15:10:37 10° N 15:14:25 32° ENE 15:18:25 10° SE daylight
7 Apr - 16:53:21 10° WNW 16:56:47 22° SW 17:00:23 10° S daylight
7 Apr - 23:54:20 10° S 23:58:22 21° SE 00:02:35 10° E night (unlit)
8 Apr - 01:35:36 10° SW 01:41:04 61° WNW 01:46:53 10° NNE night (unlit)
8 Apr - 14:26:37 10° NE 14:29:03 15° ENE 14:31:33 10° ESE daylight
8 Apr - 16:06:46 10° NW 16:10:52 43° WSW 16:15:15 10° SSE daylight
8 Apr - 23:10:11 10° SSE 23:12:14 12° SE 23:14:20 10° ESE night (unlit)
9 Apr - 00:49:52 10° SSW 00:55:25 74° ESE 01:01:18 10° NNE night (unlit)
9 Apr - 02:34:17 10° WSW 02:37:15 15° WNW 02:40:18 10° NW night (unlit)
9 Apr - 15:20:50 10° NNW 15:25:08 89° NE 15:29:44 10° SSE daylight
9 Apr - 17:07:40 10° SW 17:08:15 10° SW 17:08:50 10° SW daylight
10 Apr - 00:04:26 10° SSW 00:09:38 41° ESE 00:15:08 10° NE night (unlit)
10 Apr - 01:47:09 10° SW 01:51:51 28° WNW 01:56:45 10° NNW night (unlit)
10 Apr - 14:35:34 10° N 14:39:35 40° ENE 14:43:49 10° SE daylight
10 Apr - 16:18:58 10° W 16:22:06 19° SW 16:25:23 10° S daylight
10 Apr - 23:19:18 10° S 23:23:43 24° SE 23:28:20 10° ENE night (unlit)
11 Apr - 01:00:54 10° SW 01:06:19 51° WNW 01:12:02 10° N night (unlit)
11 Apr - 13:51:10 10° NNE 13:54:11 19° ENE 13:57:17 10° ESE daylight
11 Apr - 15:32:08 10° WNW 15:36:08 35° SW 15:40:23 10° S daylight
11 Apr - 22:34:45 10° SSE 22:37:38 14° SE 22:40:36 10° ESE night (unlit)
12 Apr - 00:15:05 10° SSW 00:20:40 87° ESE 00:26:37 10° NNE night (unlit)
12 Apr - 02:00:25 10° W 02:02:24 12° WNW 02:04:26 10° NW night (unlit)
12 Apr - 14:46:02 10° NNW 14:50:21 74° WSW 14:54:57 10° SSE daylight
12 Apr - 23:29:33 10° SSW 23:34:55 49° ESE 23:40:37 10° NE night (unlit)
13 Apr - 01:12:38 10° WSW 01:17:01 23° WNW 01:21:34 10° NNW night (unlit)
13 Apr - 14:00:34 10° N 14:04:44 50° ENE 14:09:09 10° SE daylight
13 Apr - 15:44:40 10° W 15:47:25 16° SW 15:50:18 10° S daylight
13 Apr - 22:44:18 10° S 22:49:02 28° SE 22:54:00 10° ENE night (unlit)
